#timestamp,LO_Frequency,Hit,StdDev 
1704546015.6,286047001.2,N
1704546035.5,286047000.2,N
1704546055.3,286047000.8,N
1704546075.1,286047000.3,N
1704546095.9,286046998.6,N
1704546115.7,286046998.6,N
1704546135.5,286046998.2,N
1704546155.4,286046998.9,N
1704546175.2,286047000.7,N
1704546195.1,286046998.8,N
1704546196.0,286046998.8,N
1704546215.8,286046998.6,N
1704546235.6,286047001.1,N
1704546255.5,286046999.0,N
1704546275.3,286047000.9,N
1704546295.1,286046998.5,N
1704546315.9,286046998.1,N
1704546335.7,286047000.8,N
1704546355.6,286046998.8,N
1704546375.4,286046998.8,N
1704546395.2,286046998.3,N
1704546415.1,286046998.5,N
1704546416.0,286046998.5,N
1704546435.8,286047001.2,N
1704546455.7,286046998.3,N
1704546475.5,286046999.3,N
1704546495.3,286046998.4,N
1704546515.2,286046999.0,N
1704546535.9,286046999.4,N
1704546555.7,286046998.9,N
1704546575.6,286046998.5,N
1704546595.4,286047000.8,N
1704546615.3,286047001.1,N
1704546635.1,286046998.2,N
1704546636.0,286046998.2,N
1704546655.8,286047000.5,N
1704546675.7,286046999.9,N
1704546695.5,286046999.9,N
1704546715.3,286046999.7,N
1704546735.2,286047002.0,N
1704546755.0,286047002.4,N
1704546755.9,286047002.4,N
1704546775.8,286046999.8,N
1704546795.6,286046999.8,N
1704546815.4,286046999.9,N
1704546835.3,286047002.4,N
1704546855.1,286047001.8,N
1704546875.8,286047002.5,N
1704546895.7,286047001.8,N
1704546915.5,286047004.1,N
1704546935.4,286047004.4,N
1704546955.2,286047003.8,N
1704546975.0,286047003.8,N
1704546975.9,286047003.8,N
1704546995.8,286047003.9,N
1704547015.6,286047001.8,N
1704547035.4,286047004.2,N
1704547055.3,286047004.2,N
1704547075.1,286047001.8,N
1704547095.9,286046999.8,N
1704547115.7,286047002.1,N
1704547135.5,286047002.2,N
1704547155.4,286047002.3,N
1704547175.2,286047001.6,N
1704547195.0,286047003.3,N
1704547196.0,286047003.3,N
1704547215.8,286047004.1,N
1704547235.6,286047003.6,N
1704547255.5,286047004.0,N
1704547275.3,286047001.7,N
1704547295.1,286047001.6,N
1704547315.9,286047001.7,N
1704547335.7,286047001.6,N
1704547355.6,286047003.7,N
1704547375.4,286047003.5,N
1704547395.2,286047003.5,Y
1704547415.1,286047000.2,P
1704547416.0,286047000.2,N
1704547435.8,286047001.8,N
1704547455.6,286047001.5,N
1704547475.5,286047001.7,N
1704547495.3,286047004.3,Y
1704547515.2,286047002.8,P
1704547535.9,286047002.4,P
1704547555.7,286047002.2,P
1704547575.6,286047001.8,Y
1704547595.4,286047001.2,P
1704547615.3,286047000.7,N
1704547635.1,286047000.1,N
1704547636.0,286047000.1,N
1704547655.8,286047000.7,N
1704547675.7,286046998.7,N
1704547695.5,286047002.4,N
1704547745.4,286047001.9,E
1704547755.3,286047000.9,N
1704547775.1,286046998.7,P
1704547795.9,286046998.1,N
1704547815.7,286047001.0,N
1704547835.5,286046998.6,N
1704547855.4,286046998.9,N
1704547875.2,286046998.1,N
1704547895.1,286046999.0,N
1704547896.0,286046999.0,N
1704547915.8,286046999.4,N
1704547935.6,286047001.2,N
1704547955.5,286047001.1,N
1704547975.3,286047002.6,N
1704547995.2,286047002.8,N
1704548015.9,286046999.9,N
1704548035.7,286047001.5,N
1704548055.6,286047001.9,N
1704548075.4,286047002.6,N
1704548095.3,286047000.3,N
1704548115.1,286047000.2,N
1704548116.0,286047000.2,N
1704548135.8,286047000.3,N
1704548155.7,286047000.3,N
1704548175.5,286047000.0,N
1704548195.4,286047002.4,N
1704548215.2,286046999.8,N
1704548235.0,286046998.2,N
1704548235.9,286046998.2,N
1704548255.8,286046996.9,N
1704548275.6,286046996.6,N
1704548295.4,286046999.5,N
1704548315.3,286046996.6,N
1704548335.1,286046999.4,N
1704548355.1,286046996.7,N
1704548375.9,286046999.2,N
1704548395.7,286046999.5,N
1704548415.5,286046998.7,N
1704548435.4,286046999.3,N
1704548455.2,286047000.7,N
1704548475.0,286047000.6,N
1704548475.9,286047000.6,N
1704548495.8,286047000.4,N
1704548515.6,286047000.4,N
1704548535.5,286046998.1,N
1704548555.3,286046998.5,N
1704548575.1,286046999.3,N
1704548595.9,286046999.0,N
1704548615.7,286046998.2,N
1704548635.6,286046999.9,N
1704548655.4,286047000.3,N
1704548675.2,286046998.6,N
1704548695.1,286046998.8,N
1704548696.0,286046998.8,N
1704548715.8,286046998.3,N
1704548735.7,286046996.5,N
1704548755.5,286047001.0,N
1704548775.3,286047000.4,N
1704548795.2,286047000.7,N
1704548815.0,286046998.4,N
1704548815.9,286046998.4,N
1704548835.8,286046999.1,N
1704548855.6,286047000.7,N
1704548875.4,286047000.0,N
1704548895.3,286047000.1,N
1704548915.1,286047002.7,N
1704548935.9,286047001.5,N
1704548955.7,286047001.5,N
1704548975.5,286046999.8,N
1704548995.4,286047002.7,N
1704549015.2,286047002.8,N
1704549035.1,286047000.1,N
1704549036.0,286047000.1,N
1704549055.8,286047002.2,N
1704549075.6,286047002.6,N
1704549095.5,286047002.1,N
1704549115.3,286046999.9,N
1704549135.1,286047000.2,N
1704549155.9,286047002.8,N
1704549175.7,286047000.0,N
1704549195.6,286047001.2,N
1704549215.4,286047002.7,N
1704549235.2,286047001.5,N
1704549255.1,286047004.4,N
1704549256.0,286047004.4,N
1704549275.8,286047002.5,N
1704549295.6,286046999.8,N
1704549315.5,286047002.2,N
1704549335.3,286047000.5,N
1704549355.2,286047002.4,N
1704549375.9,286046999.8,N
1704549395.7,286047000.9,N
1704549415.6,286047000.3,N
1704549435.4,286047002.3,N
1704549455.3,286047002.3,N
1704549475.1,286047001.4,N
1704549476.0,286047001.4,N
1704549495.8,286047003.2,N
1704549515.7,286047005.9,Y
1704549535.5,286047001.3,P
1704549555.4,286047001.8,P
1704549575.2,286046999.9,N
1704549595.0,286046999.8,N
1704549595.9,286046999.8,N
